Location: *
(13.2257°S, 48.7193°W)
Time: 04:39:33
(UTC+00:00)

Daily predictions for brighter satellites

Satellite Brightness Start Highest point End
(mag) Time Altitude Azimuth Time Altitude Azimuth Time Altitude Azimuth
Cosmos 2237 Rocket 3.7 00:17:40 30° SSW 00:17:40 30° SSW 00:20:43 10° S
CZ-4C R/B 4.3 06:35:01 29° NNE 06:38:46 40° ENE 06:46:55 10° SE
ARIANE 5 DEB (SYLDA) 4.5 06:57:57 22° NE 06:57:57 22° NE 07:00:50 10° ENE
USA 267 3.8 06:52:17 10° SSE 06:57:37 46° SSW 06:57:37 46° SSW
Meteor 1-24 Rocket 4.2 06:59:58 51° SSE 06:59:58 51° SSE 07:03:58 10° S
Centaur AC-146 3.5 07:00:41 38° ENE 07:00:41 38° ENE 07:02:40 10° E
SL-16 R/B 4.1 06:57:31 10° SE 07:02:53 30° ENE 07:08:10 10° NNE
Meteor 2-5 Rocket 3.8 07:07:04 78° ESE 07:07:04 78° ESE 07:12:35 10° S
Ariane H10 4.1 07:15:20 27° NE 07:15:20 27° NE 07:16:49 10° ENE
Cosmos 1867 3.7 07:22:59 56° SW 07:22:59 56° SW 07:27:42 10° SSE
Meteor 2-8 Rocket 4.3 07:19:50 10° S 07:25:55 74° W 07:28:18 39° NNW
GPS 2-12 Rocket1 4.1 07:30:41 34° SSW 07:31:24 36° S 07:35:32 10° ESE
H-2A R/B 3.4 07:34:01 69° SSE 07:34:01 69° SSE 07:37:29 10° S
Cosmos 1703 Rocket 3.8 07:37:20 52° SW 07:37:20 52° SW 07:41:02 10° S
Cosmos 1354 Rocket 3.9 07:45:19 10° SSW 07:50:27 58° WNW 07:55:32 10° N
Delta 198 3.1 07:50:29 58° WNW 07:51:15 90° NNE 07:55:06 10° ESE
Cosmos 1441 Rocket 3.0 07:51:22 36° NNE 07:52:32 69° E 07:55:52 10° SSE
Cosmos 2237 4.2 07:53:54 10° SSW 07:59:32 59° WNW 08:05:07 10° N
CZ-3 R/B 3.6 07:48:46 10° WSW 08:08:39 44° S 08:15:06 10° ESE
Cosmos 990 Rocket 4.4 08:04:00 10° SSW 08:08:48 39° W 08:13:36 10° NNW
H-II Stage 2 3.6 08:09:47 18° N 08:10:42 23° NE 08:13:48 10° E
Cosmos 1607 4.5 08:08:06 22° WNW 08:11:39 41° WSW 08:17:40 10° S
Cosmos 2360 Rocket 4.1 08:08:28 10° S 08:13:31 33° ESE 08:18:30 10° NE
Cosmos 2242 Rocket 4.3 08:12:09 10° N 08:16:34 57° E 08:21:03 10° SSE
EPKM 1.6 08:17:58 28° NNW 08:18:46 46° NNE 08:20:56 10° ESE
CZ-4 R/B 4.0 08:21:24 10° N 08:26:08 50° WNW 08:30:50 10° SSW
CZ-4C R/B 3.9 08:20:02 14° NW 08:27:10 38° WSW 08:35:04 10° S
NATO 3D Rocket 3.2 08:24:45 12° WSW 08:29:09 75° NNW 08:33:59 10° ENE
Cosmos 1782 Rocket 3.8 08:25:32 10° S 08:29:53 75° E 08:34:14 10° N
Cosmos 1908 Rocket 3.9 08:26:17 10° SSW 08:30:19 40° W 08:34:21 10° NNW
Cosmos 2297 Rocket 3.1 08:25:53 10° N 08:31:18 50° ENE 08:36:44 10° SSE
In-Cosmos 22 Rocket 4.3 08:25:46 10° NNW 08:31:23 57° W 08:36:56 10° S
Ariane H10-3 3.2 08:37:46 11° WNW 08:41:10 40° NNE 08:52:06 10° ENE
GPS 2-15 Rocket1 4.1 08:39:39 10° NW 08:43:52 37° NNE 08:48:07 10° E
Meteor 1-21 Rocket 4.3 08:38:53 10° NNW 08:44:22 58° W 08:49:50 10° S
ATLAS 3B R/B 3.8 08:38:01 10° S 08:44:24 50° ESE 08:51:14 10° NE
SL-16 R/B 3.6 08:41:12 10° SSW 08:46:07 25° WSW 08:51:00 10° NW
Meteor 1-28 Rocket 4.4 08:44:14 10° SSW 08:46:35 18° WSW 08:48:54 10° WNW
Cosmos 44 Rocket 3.7 08:42:22 10° NNW 08:47:22 71° ENE 08:52:14 10° SSE
Cosmos 2123 Rocket 4.0 08:45:07 10° NNW 08:51:13 67° W 08:57:23 10° S
SL-16 R/B 2.7 08:47:18 10° SW 08:52:28 37° WNW 08:57:37 10° N
